Pampa, TX

2:19 AM CDT on July 23, 2017 (GMT -0500)
Perry Lefors

Weather History for KPPA - May, 2013

Change the Weather History Date:

Sunday, May 26, 2013

  Actual Average Record
Temperature  
Mean Temperature 78 °F -  
Max Temperature 94 °F 80 °F 95 °F (1990)
Min Temperature 63 °F 54 °F 42 °F (2011)
Cooling Degree Days 13    
Growing Degree Days 28 (Base 50)    
Moisture  
Dew Point 54 °F    
Average Humidity 47    
Maximum Humidity 90    
Minimum Humidity 19    
Precipitation  
Precipitation 0.00 in - - ()
Sea Level Pressure  
Sea Level Pressure 29.93 in    
Wind  
Wind Speed 18 mph (South)    
Max Wind Speed 32 mph    
Max Gust Speed 39 mph    
Visibility 10 miles    
Events Thunderstorm    
Averages and records for this station are not official NWS values.
T = Trace of Precipitation, MM = Missing Value Source: NWS Daily Summary

Daily Weather History Graph

Daily Weather History Graph

Search for Another Location

Airport or City:

Trip Planner

Search our weather history database for the weather conditions in past years. The results will help you decide how hot, cold, wet, or windy it might be!

Date:

Astronomy

May. 26, 2013 Rise Set
Actual Time 6:31 AM CDT 8:50 PM CDT
Civil Twilight 6:02 AM CDT 9:19 PM CDT
Nautical Twilight 5:27 AM CDT 9:55 PM CDT
Astronomical Twilight 4:48 AM CDT 10:34 PM CDT
Moon 10:40 PM CDT (5/26) 8:02 AM CDT (5/26)
Length of Visible Light 15h 16m
Length of Day
14h 18m
Waning Gibbous, 96% of the Moon is Illuminated
May 26
Waning Gibbous
May 31
Last Quarter
Jun 8
New
Jun 16
First Quarter
Jun 23
Full

Hourly Weather History & Observations

Time (CDT) Temp. Heat Index Dew Point Humidity Pressure Visibility Wind Dir Wind Speed Gust Speed Precip Events Conditions
12:15 AM 71.8 °F - 48.2 °F 43% 29.93 in 10.0 mi SSE 24.2 mph 31.1 mph N/A   Clear
12:35 AM 71.6 °F - 48.9 °F 45% 29.92 in 10.0 mi SE 23.0 mph 28.8 mph N/A   Clear
12:55 AM 72.5 °F - 49.8 °F 45% 29.94 in 10.0 mi SSE 13.8 mph 26.5 mph N/A   Clear
1:15 AM 71.8 °F - 52.7 °F 51% 29.95 in 10.0 mi SSE 17.3 mph - N/A   Clear
1:35 AM 71.6 °F - 53.6 °F 53% 29.96 in 10.0 mi South 13.8 mph 26.5 mph N/A   Clear
1:55 AM 71.6 °F - 52.9 °F 52% 29.96 in 10.0 mi South 19.6 mph - N/A   Clear
2:15 AM 70.7 °F - 54.5 °F 56% 29.96 in 10.0 mi South 13.8 mph - N/A   Clear
2:35 AM 69.8 °F - 55.4 °F 60% 29.96 in 10.0 mi South 15.0 mph - N/A   Clear
2:55 AM 68.9 °F - 55.4 °F 62% 29.96 in 10.0 mi SSE 11.5 mph - N/A   Clear
3:15 AM 67.8 °F - 55.4 °F 64% 29.96 in 10.0 mi SSE 9.2 mph - N/A   Clear
3:35 AM 67.8 °F - 58.5 °F 72% 29.96 in 10.0 mi SSE 11.5 mph - N/A   Clear
3:55 AM 67.6 °F - 59.4 °F 75% 29.96 in 10.0 mi SSE 10.4 mph - N/A   Clear
4:15 AM 67.3 °F - 59.9 °F 77% 29.97 in 10.0 mi SSE 11.5 mph - N/A   Clear
4:35 AM 66.6 °F - 60.1 °F 80% 29.98 in 10.0 mi South 13.8 mph - N/A   Clear
4:55 AM 66.2 °F - 60.1 °F 81% 29.98 in 10.0 mi SSE 13.8 mph - N/A   Clear
5:15 AM 65.3 °F - 59.9 °F 83% 29.97 in 10.0 mi South 16.1 mph - N/A   Clear
5:35 AM 64.8 °F - 59.9 °F 84% 29.98 in 10.0 mi South 15.0 mph - N/A   Clear
5:55 AM 64.4 °F - 59.9 °F 85% 29.97 in 10.0 mi SSE 13.8 mph - N/A   Clear
6:15 AM 64.0 °F - 59.9 °F 86% 29.99 in 10.0 mi South 11.5 mph - N/A   Clear
6:35 AM 63.9 °F - 60.1 °F 87% 30.00 in 10.0 mi South 11.5 mph - N/A   Clear
6:55 AM 64.0 °F - 60.1 °F 87% 30.01 in 10.0 mi South 10.4 mph - N/A   Clear
7:15 AM 63.7 °F - 60.1 °F 88% 30.02 in 10.0 mi South 10.4 mph - N/A   Clear
7:35 AM 63.1 °F - 59.9 °F 89% 30.02 in 10.0 mi South 9.2 mph - N/A   Clear
7:55 AM 63.1 °F - 60.1 °F 90% 30.02 in 10.0 mi South 8.1 mph - N/A   Clear
8:15 AM 64.6 °F - 60.3 °F 86% 30.01 in 10.0 mi South 8.1 mph - N/A   Clear
8:35 AM 70.2 °F - 58.1 °F 65% 30.01 in 10.0 mi SSW 13.8 mph 18.4 mph N/A   Clear
8:55 AM 71.6 °F - 57.0 °F 60% 30.02 in 10.0 mi South 12.7 mph - N/A   Clear
9:15 AM 73.0 °F - 57.9 °F 59% 30.02 in 10.0 mi South 13.8 mph - N/A   Clear
9:35 AM 75.4 °F - 54.5 °F 48% 30.02 in 10.0 mi South 15.0 mph - N/A   Clear
9:55 AM 77.0 °F - 51.1 °F 40% 30.02 in 10.0 mi South 13.8 mph 21.9 mph N/A   Clear
10:15 AM 76.6 °F - 52.0 °F 42% 30.02 in 10.0 mi South 17.3 mph 20.7 mph N/A   Clear
10:35 AM 78.1 °F - 52.2 °F 40% 30.00 in 10.0 mi SSW 18.4 mph 23.0 mph N/A   Clear
10:55 AM 79.0 °F - 52.5 °F 40% 29.99 in 10.0 mi SSW 21.9 mph 26.5 mph N/A   Clear
11:15 AM 79.9 °F - 52.0 °F 38% 29.99 in 10.0 mi SSW 23.0 mph 28.8 mph N/A   Clear
11:35 AM 81.0 °F - 50.2 °F 34% 29.98 in 10.0 mi SSW 23.0 mph 29.9 mph N/A   Clear
11:55 AM 82.4 °F - 50.2 °F 33% 29.97 in 10.0 mi SSW 26.5 mph 33.4 mph N/A   Clear
12:15 PM 82.2 °F - 50.2 °F 33% 29.97 in 10.0 mi SSW 23.0 mph 32.2 mph N/A   Clear
12:35 PM 83.7 °F - 50.7 °F 32% 29.97 in 10.0 mi SSW 23.0 mph 33.4 mph N/A   Clear
12:55 PM 85.8 °F - 50.7 °F 30% 29.96 in 10.0 mi SSW 25.3 mph 29.9 mph N/A   Clear
1:15 PM 86.9 °F - 50.4 °F 28% 29.95 in 10.0 mi SSW 25.3 mph 31.1 mph N/A   Clear
1:35 PM 88.3 °F - 50.0 °F 27% 29.93 in 10.0 mi SSW 21.9 mph 31.1 mph N/A   Clear
1:55 PM 89.6 °F - 50.0 °F 26% 29.93 in 10.0 mi SSW 23.0 mph 32.2 mph N/A   Clear
2:15 PM 90.0 °F - 50.0 °F 25% 29.92 in 10.0 mi South 20.7 mph 32.2 mph N/A   Clear
2:35 PM 91.4 °F - 48.9 °F 23% 29.91 in 10.0 mi South 24.2 mph 35.7 mph N/A   Clear
2:55 PM 92.5 °F - 49.3 °F 23% 29.90 in 10.0 mi SSW 26.5 mph 32.2 mph N/A   Clear
3:15 PM 93.0 °F - 49.1 °F 22% 29.90 in 10.0 mi South 19.6 mph 31.1 mph N/A   Clear
3:35 PM 92.5 °F - 48.2 °F 22% 29.89 in 10.0 mi South 21.9 mph 31.1 mph N/A   Clear
3:55 PM 93.0 °F - 48.7 °F 22% 29.88 in 10.0 mi SSW 19.6 mph 28.8 mph N/A   Clear
4:15 PM 92.3 °F - 44.4 °F 19% 29.88 in 10.0 mi SSW 20.7 mph 26.5 mph N/A   Clear
4:35 PM 91.9 °F - 46.9 °F 21% 29.88 in 10.0 mi South 19.6 mph 27.6 mph N/A   Clear
4:55 PM 92.1 °F - 48.2 °F 22% 29.87 in 10.0 mi South 21.9 mph 29.9 mph N/A   Clear
5:15 PM 93.4 °F - 46.6 °F 20% 29.87 in 10.0 mi South 20.7 mph 26.5 mph N/A   Clear
5:35 PM 92.3 °F - 48.2 °F 22% 29.86 in 10.0 mi South 20.7 mph 27.6 mph N/A   Clear
5:55 PM 93.0 °F - 50.0 °F 23% 29.85 in 10.0 mi South 20.7 mph 28.8 mph N/A   Clear
6:15 PM 90.3 °F - 52.9 °F 28% 29.85 in 10.0 mi South 18.4 mph 28.8 mph N/A   Clear
6:35 PM 90.5 °F - 50.5 °F 25% 29.84 in 10.0 mi South 21.9 mph 29.9 mph N/A   Clear
6:55 PM 89.1 °F - 50.9 °F 27% 29.83 in 10.0 mi South 23.0 mph 31.1 mph N/A   Clear
7:15 PM 88.2 °F - 52.0 °F 29% 29.83 in 10.0 mi South 23.0 mph 29.9 mph N/A   Clear
7:35 PM 87.8 °F - 52.2 °F 29% 29.83 in 10.0 mi South 29.9 mph 34.5 mph N/A   Clear
7:55 PM 87.3 °F - 52.5 °F 30% 29.84 in 10.0 mi South 21.9 mph 36.8 mph N/A   Clear
8:15 PM 85.3 °F - 52.7 °F 33% 29.84 in 10.0 mi South 23.0 mph 33.4 mph N/A Thunderstorm Thunderstorm
8:35 PM 83.3 °F - 52.7 °F 35% 29.84 in 10.0 mi SSE 26.5 mph 33.4 mph N/A   Clear
8:55 PM 82.4 °F 81.4 °F 53.4 °F 37% 29.84 in 10.0 mi South 21.9 mph 28.8 mph N/A   Clear
9:15 PM 80.6 °F 80.3 °F 53.6 °F 39% 29.85 in 10.0 mi South 19.6 mph - N/A   Clear
9:35 PM 81.5 °F - 50.0 °F 33% 29.85 in 10.0 mi South 26.5 mph 33.4 mph N/A   Clear
9:55 PM 80.6 °F 80.5 °F 55.2 °F 42% 29.85 in 10.0 mi South 27.6 mph 36.8 mph N/A   Clear
10:15 PM 79.7 °F - 58.3 °F 48% 29.86 in 10.0 mi South 25.3 mph 33.4 mph N/A   Clear
10:35 PM 80.6 °F 80.9 °F 58.1 °F 46% 29.86 in 10.0 mi South 32.2 mph 39.1 mph N/A   Clear
10:55 PM 79.9 °F - 58.1 °F 47% 29.87 in 10.0 mi South 32.2 mph 36.8 mph N/A   Clear
11:15 PM 79.5 °F - 59.0 °F 49% 29.87 in 10.0 mi South 29.9 mph 34.5 mph N/A   Clear
11:35 PM 78.8 °F - 59.4 °F 51% 29.87 in 10.0 mi South 28.8 mph 35.7 mph N/A   Clear
11:55 PM 77.9 °F - 60.1 °F 54% 29.87 in 10.0 mi South 24.2 mph 35.7 mph N/A   Clear